This demonstration page uses our WeatherBlox Daily Observations layout. Learn more.

Left ArrowRight Arrow

44.8408, -93.29828

Hourly Observations for September 20, 2020

Temp ( °F °C ) Dew Point ( °F °C ) Humidity (%) Winds ( mph kmh ) Pressure ( in mb ) Visibility ( mi km ) Precip ( " mm )
12:53 am 00:53 Mostly Clear 56 13.3 48 8.9 75 75 SE 8 13 30.19 1022 10 16 0.00 0.00
1:53 am 01:53 Mostly Clear 56 13.3 47 8.3 72 72 SE 9 15 30.19 1022 10 16 0.00 0.00
2:53 am 02:53 Mostly Clear 54 12.2 47 8.3 77 77 SE 9 15 30.19 1022 10 16 0.00 0.00
3:53 am 03:53 Mostly Clear 53 11.7 47 8.3 80 80 SE 9 15 30.18 1022 10 16 0.00 0.00
4:53 am 04:53 Mostly Clear 53 11.7 47 8.3 80 80 SSE 9 15 30.18 1022 10 16 0.00 0.00
5:53 am 05:53 Mostly Clear 53 11.7 46 7.8 77 77 SSE 13 20 30.18 1022 10 16 0.00 0.00
6:53 am 06:53 Mostly Clear 54 12.2 45 7.2 72 72 SSE 13 20 30.18 1022 10 16 0.00 0.00
7:53 am 07:53 Sunny 54 12.2 45 7.2 72 72 SSE 10 17 30.19 1022 10 16 0.00 0.00
8:53 am 08:53 Mostly Sunny 56 13.3 46 7.8 70 70 SSE 10 17 30.19 1022 10 16 0.00 0.00
9:53 am 09:53 Mostly Sunny 60 15.6 46 7.8 60 60 S 12 19 30.19 1022 10 16 0.00 0.00
10:53 am 10:53 Partly Cloudy 63 17.2 46 7.8 54 54 S 14 22 30.19 1022 10 16 0.00 0.00
11:53 am 11:53 Partly Cloudy 67 19.4 46 7.8 47 47 S 20 31 30.17 1022 10 16 0.00 0.00
12:53 pm 12:53 Mostly Sunny 70 21.1 45 7.2 41 41 S 18 30 30.16 1021 10 16 0.00 0.00
1:53 pm 13:53 Mostly Sunny 72 22.2 43 6.1 35 35 S 18 30 30.14 1021 10 16 0.00 0.00
2:53 pm 14:53 Mostly Sunny 73 22.8 42 5.6 33 33 S 21 33 30.13 1020 10 16 0.00 0.00
3:53 pm 15:53 Mostly Sunny 73 22.8 42 5.6 33 33 S 23 37 30.11 1020 10 16 0.00 0.00
4:53 pm 16:53 Mostly Sunny 73 22.8 42 5.6 33 33 SSE 20 31 30.10 1019 10 16 0.00 0.00
5:53 pm 17:53 Partly Cloudy 71 21.7 43 6.1 36 36 SSE 21 33 30.09 1019 10 16 0.00 0.00
6:53 pm 18:53 Mostly Cloudy 69 20.6 43 6.1 39 39 SSE 17 28 30.10 1019 10 16 0.00 0.00
7:53 pm 19:53 Mostly Cloudy 68 20 42 5.6 39 39 SSE 17 28 30.09 1019 10 16 0.00 0.00
8:53 pm 20:53 Mostly Cloudy 67 19.4 42 5.6 41 41 S 10 17 30.14 1021 10 16 0.00 0.00
9:53 pm 21:53 Mostly Cloudy 67 19.4 42 5.6 41 41 S 12 19 30.14 1021 10 16 0.00 0.00
10:53 pm 22:53 Mostly Cloudy 66 18.9 42 5.6 42 42 S 13 20 30.14 1021 10 16 0.00 0.00
11:53 pm 23:53 Mostly Cloudy 65 18.3 43 6.1 45 45 S 10 17 30.15 1021 10 16 0.00 0.00

Powered by AerisWeather